Regional Weather Roundup
Issued by NWS Jackson, KY

Home | Current Version | Previous Version | Text Only | Print | Product List | Glossary On
Versions: 1 2 3 4 5 6 7 8 9 10 11 12 13 14 15 16 17 18 19 20 21 22 23 24 25 26 27
000
ASUS43 KJKL 211410
RWRJKL

EAST KENTUCKY HOURLY WEATHER ROUNDUP
NATIONAL WEATHER SERVICE JACKSON KY
1000 AM EDT THU SEP 21 2017

NOTE: "FAIR" INDICATES FEW OR NO CLOUDS BELOW 12,000 FEET WITH
NO SIGNIFICANT WEATHER AND/OR OBSTRUCTIONS TO VISIBILITY.

* THESE REPORTS ARE NOT UNDER NWS QUALITY CONTROL AND MAY NOT
  REPORT WEATHER SUCH AS PRECIPITATION AND FOG.

KYZ079-080-083-085-087-088-110-112-115-119-120-211500
...EASTERN KENTUCKY...

CITY           SKY/WX    TMP DP  RH WIND       PRES   REMARKS
JACKSON        SUNNY     72  67  84 CALM      30.16R
LONDON         SUNNY     73  67  81 CALM      30.15R
SOMERSET*      SUNNY     70  70 100 CALM      30.15S
MONTICELLO*    SUNNY     72  69  90 VRB5      30.15S
MIDDLESBORO*   FOG       65  65 100 CALM      30.17R VSB 1/2
HARLAN APT*    CLOUDY    63  63 100 CALM      30.18S VSB 1
PIKE CO APT*     N/A     66  66 100 S3        30.16S
BIG SANDY APT* MOSUNNY   71  68  88 CALM      30.16R
MOREHEAD APT*  LGT RAIN  73  68  83 CALM      30.16S
$$

KYZ035-036-041-042-044-050-067-078-099-211500
...CENTRAL KENTUCKY...

CITY           SKY/WX    TMP DP  RH WIND       PRES   REMARKS
MT STERLING*   SUNNY     75  68  78 CALM      30.16R
FLEMING/MASON* SUNNY     74  69  84 CALM      30.15S
DANVILLE*      SUNNY     73  70  88 CALM      30.15S
LEXINGTON      SUNNY     77  69  76 CALM      30.14R
FRANKFORT      SUNNY     76  68  76 CALM      30.12R
LOUISVILLE     MOSUNNY   77  70  79 SE3       30.10S
LEBANON*         N/A     75  70  83 CALM      30.13R
GLASGOW*       SUNNY     76  71  84 CALM      30.12R
BOWLING GREEN  PTSUNNY   75  72  90 CALM      30.10S
$$

KYZ091>093-OHZ055-061-077-WVZ005-015-034-035-042-211500
...SOUTHERN OHIO/WEST VIRGINIA...

CITY           SKY/WX    TMP DP  RH WIND       PRES   REMARKS
COVINGTON      SUNNY     76  72  87 S5        30.12R
COLUMBUS       MOSUNNY   74  68  81 CALM      30.12R
DAYTON         MOSUNNY   76  69  79 SW6       30.13S
WILMINGTON     MOSUNNY   76  70  82 CALM      30.13R
HUNTINGTON     SUNNY     73  67  81 SW3       30.13R
CHARLESTON     MOSUNNY   67  65  93 CALM      30.14R
PINEVILLE*     MOSUNNY   67  65  92 MISG      30.23R
BECKLEY        SUNNY     68  64  87 CALM      30.20R
BLUEFIELD      MOSUNNY   66  61  84 W5        30.22R
LOGAN CO APT*    N/A     70  66  88 CALM      30.17R
$$

VAZ002-007-008-TNZ017-027-036-066-071-211500
...SOUTHWEST VIRGINIA/EAST TENNESSEE...

CITY           SKY/WX    TMP DP  RH WIND       PRES   REMARKS
WISE*          PTSUNNY   72  68  88 NW5       30.23R
JONESVILLE*      N/A     72  64  78 CALM      30.19R
ABINGDON*      SUNNY     72  64  76 CALM      30.19R
BRISTOL        SUNNY     70  63  78 CALM      30.17R
MORRISTOWN*    SUNNY     73  66  78 CALM      30.14S
SEVIERVILLE*   SUNNY     70  63  78 CALM      30.13R
KNOXVILLE      MOSUNNY   73  65  75 CALM      30.12S
LAFOLLETTE*    MOSUNNY   70  68  94 CALM      30.17F
OAK RIDGE      MOSUNNY   71  67  87 CALM      30.14S
CROSSVILLE     SUNNY     73  67  81 E3        30.17R
NASHVILLE      MOSUNNY   78  70  76 CALM      30.11R
$$

...KEY TO REMARKS...
VSB - VISIBILITY IN MILES
WCI - WIND CHILL INDEX
HX  - HEAT INDEX

$$




USA.gov is the U.S. government's official web portal to all federal, state and local government web resources and services.